Location: ????????
(60.4897°N, 46.6418°E)
Time: 11:59:43
(UTC+00:00)

Daily predictions for brighter satellites

Satellite Brightness Start Highest point End
(mag) Time Altitude Azimuth Time Altitude Azimuth Time Altitude Azimuth
Cosmos 2219 Rocket 3.3 17:47:41 10° NW 17:53:03 40° NNE 17:58:24 10° E
COSMOS 2406 3.2 17:47:50 10° SSW 17:53:35 75° SE 17:59:19 10° NE
Cosmos 1140 Rocket 3.7 17:48:41 10° S 17:53:47 53° ESE 17:58:54 10° NE
Cosmos 1805 Rocket 4.3 17:56:25 10° SSW 18:00:50 59° WNW 18:05:17 10° N
CZ-2C R/B 3.4 17:56:09 10° NNE 18:01:14 57° WNW 18:06:18 10° SW
Cosmos 1900 4.4 17:57:24 10° SW 18:02:24 80° SE 18:07:32 10° NE
Cosmos 2082 Rocket 2.5 17:57:23 10° S 18:02:48 48° ESE 18:08:15 10° NE
Cosmos 1703 Rocket 3.6 17:58:26 10° N 18:02:49 67° ENE 18:07:08 10° SSE
SPOT 1/Viking Rocket 3.9 17:58:49 10° S 18:04:02 71° WSW 18:09:17 10° NNW
Cosmos 2237 4.4 18:00:26 10° NW 18:06:11 70° NE 18:11:54 10° SE
Cosmos 2322 Rocket 2.3 18:01:19 10° NW 18:07:03 89° SW 18:12:47 10° SE
Cosmos 2242 Rocket 3.7 18:07:28 10° NNW 18:11:58 85° WSW 18:16:24 10° S
SL-16 R/B 4.1 18:07:17 10° NW 18:12:15 29° N 18:17:13 10° ENE
Okean 3 4.3 18:08:19 10° N 18:12:22 40° ENE 18:16:27 10° SE
USA 32 4.0 18:09:06 10° S 18:14:19 77° E 18:19:35 10° N
USA 267 3.8 18:08:35 10° ENE 18:14:30 35° SE 18:20:25 10° SSW
Okean 1-7 3.0 18:11:31 10° NNW 18:15:53 77° ENE 18:20:12 10° SSE
Lacrosse 5 2.9 18:13:55 10° W 18:18:25 32° SSW 18:22:54 10° SSE
NOSS 3-2 (A) 4.1 18:13:49 10° S 18:19:05 34° ESE 18:25:02 10° ENE
Cosmos 2360 Rocket 2.4 18:14:13 10° NW 18:19:56 75° NE 18:25:37 10° SE
Cosmos 1633 Rocket 3.3 18:16:25 10° SSW 18:20:52 78° WNW 18:25:19 10° NNE
ALOS 2 4.4 18:18:29 10° ESE 18:21:55 23° NE 18:25:21 10° N
Cosmos 614 Rocket 4.3 18:16:48 10° SW 18:22:00 76° NW 18:27:17 10° NNE
SWARM A 4.3 18:21:53 10° N 18:25:13 64° E 18:28:30 10° SSE
NOSS 3-2 (C) 4.4 18:21:38 10° S 18:26:30 27° ESE 18:31:58 10° ENE
Cosmos 1867 3.9 18:21:48 10° SSW 18:26:56 43° SE 18:32:04 10° ENE
OBJECT-B 4.1 18:26:23 10° W 18:27:05 10° W 18:27:47 10° WNW
COSMOS 2428 3.5 18:22:00 10° NW 18:27:36 48° NNE 18:33:09 10° ESE
Cosmos 1980 Rocket 3.7 18:23:14 10° NW 18:28:03 29° WSW 18:32:50 10° SSW
Meteor 1-20 Rocket 4.3 18:22:33 10° S 18:28:22 74° ESE 18:34:14 10° NNE
Cosmos 676 Rocket 4.1 18:25:04 10° SSW 18:30:20 64° ESE 18:35:39 10° NE
SWAS 4.4 18:26:03 10° SW 18:30:22 77° SE 18:34:44 10° NE
Cosmos 2344 4.2 18:24:49 10° WNW 18:32:51 77° N 18:43:30 10° E
Cosmos 540 Rocket 3.5 18:28:05 10° NNW 18:33:18 85° WSW 18:38:11 12° SSE
SL-27 R/B 3.9 18:31:42 13° SE 18:33:34 18° ESE 18:35:57 10° ENE
Cosmos 2221 Rocket 4.1 18:29:41 10° N 18:34:03 50° ENE 18:38:02 12° SE
Terra 1.9 18:30:16 10° SSE 18:35:03 78° WSW 18:39:52 10° NNW
Cosmos 1602 3.8 18:32:07 10° S 18:36:01 66° E 18:39:56 10° NNE
Cosmos 1437 Rocket 3.1 18:34:09 10° NNW 18:37:58 61° WSW 18:41:42 10° S
Cosmos 841 Rocket 3.6 18:33:55 10° NW 18:39:09 78° WSW 18:44:01 12° SSE
Cosmos 1238 Rocket 2.0 18:36:51 10° SSW 18:39:49 87° W 18:42:51 10° NNE
Okean 1 4.1 18:37:07 10° NNW 18:41:03 49° W 18:44:57 10° S
ERS-1 Rocket 3.6 18:37:02 10° S 18:41:56 52° W 18:46:53 10° NNW
Cosmos 1500 3.9 18:41:23 13° SSE 18:44:23 36° E 18:47:52 10° NNE
Resurs 01 Rocket 4.2 18:42:10 10° SW 18:45:08 18° W 18:48:08 10° NW
Cosmos 1470 Rocket 3.7 18:41:05 10° SSW 18:45:30 77° WNW 18:49:55 10° NNE
Cosmos 2237 Rocket 3.4 18:40:45 10° NW 18:46:04 39° NNE 18:51:21 10° E
Cosmos 2333 Rocket 2.6 18:41:01 10° NW 18:46:47 63° NE 18:52:31 10° ESE
deb Kosmos-1763 4.1 18:45:21 10° SW 18:49:00 83° WNW 18:52:42 10° NNE
Cosmos 1833 Rocket 2.9 18:43:38 10° SW 18:49:17 77° NW 18:54:58 10° NE
Cosmos 405 Rocket 2.6 18:48:35 10° SSW 18:52:18 89° E 18:56:06 10° NNE
GP-B 4.4 18:48:20 10° N 18:52:30 39° WNW 18:56:38 10° SW
USA 276 4.3 18:52:29 10° SW 18:53:42 12° SSW 18:54:02 12° S
Cosmos 1184 Rocket 3.8 18:50:36 10° SW 18:53:49 48° WNW 18:57:04 10° N
USA 234 4.4 18:49:43 10° SSE 18:55:04 28° SW 19:00:32 10° W
Cosmos 1666 3.9 18:53:37 15° SE 18:55:57 26° E 18:59:07 10° NNE
H-2A R/B 4.5 18:52:02 10° N 18:56:01 47° WNW 18:59:58 10° SW
Cosmos 1814 Rocket 4.1 18:51:29 10° NW 18:56:40 71° WSW 19:01:11 14° SSE
SPOT 5 3.7 18:55:00 10° SSW 18:59:05 40° W 19:03:17 10° NNW
Cosmos 1570 Rocket 4.4 18:54:26 10° NW 18:59:40 59° WSW 19:04:19 13° S
Cosmos 1271 Rocket 3.9 18:57:58 10° N 19:01:23 31° ENE 19:04:21 13° ESE
Meteor 1-14 Rocket 4.4 18:56:11 10° S 19:02:04 78° ESE 19:08:05 10° NNE
Cosmos 1741 Rocket 4.3 18:57:04 10° S 19:02:08 51° ESE 19:07:17 10° NE
Meteor 1-13 Rocket 4.2 18:56:34 10° NNW 19:02:11 89° ENE 19:06:59 14° SSE
Cosmos 1954 Rocket 4.1 18:56:56 10° SSW 19:02:17 87° WNW 19:07:40 10° NNE
SL-4 R/B 3.1 19:00:09 10° SW 19:02:53 19° S 19:04:01 17° SE
Cosmos 2208 Rocket 4.3 18:59:06 10° NW 19:04:21 62° WSW 19:08:46 14° SSE
ATLAS 3B R/B 3.8 19:01:09 13° SSE 19:04:58 22° ESE 19:09:50 10° ENE
Cosmos 1378 Rocket 4.4 19:01:19 10° N 19:05:36 42° ENE 19:09:05 14° SE
ERBS 2.5 19:05:17 10° WSW 19:08:29 45° S 19:11:27 11° ESE
Meteor 1-23 Rocket 4.5 19:03:43 10° NNW 19:09:34 68° ENE 19:14:25 15° SSE
Meteor 2-4 Rocket 4.1 19:04:03 10° NNW 19:09:42 61° W 19:14:56 11° S
SAR-Lupe-2 3.8 19:09:24 10° NNE 19:13:00 72° WNW 19:16:35 10° SSW
Cosmos 44 4.3 19:10:22 10° WNW 19:14:41 34° SW 19:18:19 15° S
Tsikada Rocket 4.1 19:08:45 10° NNW 19:15:11 75° ENE 19:20:29 15° SSE
USA 238 DEB 3.8 19:09:26 10° SSW 19:15:59 57° SE 19:22:51 10° ENE
USA 238 3.8 19:09:33 10° SSW 19:16:05 57° SE 19:22:57 10° ENE
Cosmos 1536 3.7 19:14:18 17° SSE 19:16:47 34° E 19:20:25 10° NNE
Cosmos 44 Rocket 3.3 19:11:55 10° WNW 19:16:51 90° SSW 19:21:36 12° SE
Cosmos 1378 3.8 19:15:20 10° N 19:18:59 45° ENE 19:21:33 17° SE
Iridium 4 Rocket 2.9 19:15:35 14° S 19:19:16 83° E 19:23:27 10° N
Helios 1A 4.5 19:18:30 10° ESE 19:22:10 29° NE 19:25:51 10° N
Cosmos 1933 Rocket 4.5 19:22:22 10° SW 19:26:41 50° WNW 19:31:03 10° N
Geosat 4.4 19:25:28 16° SSE 19:29:19 52° WSW 19:34:16 10° NW
SL-16 R/B 3.5 19:24:47 10° NW 19:29:41 30° WSW 19:34:19 11° SSW
Cosmos 2100 Rocket 4.0 19:28:07 10° SSW 19:34:17 87° WNW 19:40:29 10° NNE
Cosmos 2322 3.8 19:29:10 10° NW 19:34:51 73° SW 19:39:13 17° SSE
Cosmos 1242 Rocket 2.5 19:32:20 10° NNW 19:35:57 82° WSW 19:38:16 21° S
Cosmos 1869 Rocket 3.7 19:32:52 11° SSW 19:37:07 79° WNW 19:41:38 10° NNE
CENTAUR R/B 2.8 19:31:25 10° SSW 19:37:31 53° SE 19:44:45 10° ENE
Cosmos 2219 Rocket 2.2 19:31:52 10° NW 19:37:36 87° SW 19:42:13 16° SE
OPS 6432 4.0 19:37:56 10° WSW 19:41:19 79° SSE 19:44:15 10° ENE
Lacrosse 4 Rocket 3.1 19:41:19 16° SE 19:42:23 18° ESE 19:45:12 10° ENE
Cosmos 1842 4.3 19:38:58 10° N 19:42:42 37° ENE 19:45:26 16° SE
NOSS 0 Rocket 4.1 19:37:52 10° NW 19:44:10 77° NE 19:50:05 12° SE
Spot 4 4.0 19:42:58 18° S 19:46:31 68° WSW 19:51:23 10° NNW
Cosmos 2173 Rocket 4.1 19:40:34 10° SSW 19:46:44 80° WNW 19:52:53 10° NNE
Cosmos 2082 Rocket 2.9 19:41:17 10° WSW 19:46:54 59° NW 19:52:32 10° NE
Cosmos 1674 Rocket 3.5 19:44:30 10° NNW 19:48:52 82° WSW 19:51:48 20° S
Cosmos 2333 4.4 19:43:37 10° NW 19:49:21 62° WSW 19:53:33 19° SSE
Cosmos 2322 Rocket 3.6 19:45:51 10° NW 19:50:32 27° WSW 19:54:49 12° SSW
Cosmos 1725 Rocket 4.0 19:48:43 15° S 19:54:00 77° E 20:00:21 10° NNE
FALCON 9 DEB 4.3 19:52:53 10° SW 19:55:31 23° S 19:55:31 23° S
Cosmos 1356 3.3 19:54:19 22° S 19:56:23 74° ESE 19:59:50 10° NNE
EO 1 Del DPAF 3.6 19:53:48 10° NNE 19:57:28 47° ESE 19:59:30 23° SSE
SL-16 R/B 3.3 19:52:16 10° NW 19:57:43 43° NNE 20:03:09 10° ESE
ALOS 2 2.6 19:54:50 21° SSE 19:57:48 88° WSW 20:02:14 10° NNW
USA 267 3.3 19:51:55 10° E 19:58:24 60° SSE 20:04:52 10° WSW
SL-08 R/B 4.4 19:53:32 15° S 19:58:38 83° E 20:04:47 10° NNE
Lacrosse 5 4.0 19:58:21 10° WSW 20:00:07 12° SW 20:01:54 10° SSW
Cosmos 968 Rocket 4.5 19:58:44 19° SSE 20:01:26 30° ESE 20:05:52 10° NE
Cosmos 2360 Rocket 3.2 19:58:32 10° NW 20:03:37 35° WSW 20:07:25 16° SSW
Cosmos 2016 Rocket 4.1 19:59:47 13° SSW 20:05:32 83° WNW 20:11:59 10° NNE
Cosmos 1459 Rocket 4.4 19:59:51 10° SSW 20:06:08 65° WNW 20:12:30 10° NNE
SL-27 R/B 2.7 20:05:13 12° SW 20:08:18 64° NW 20:11:38 10° NNE
Cosmos 1850 Rocket 4.3 20:03:12 10° SW 20:08:30 69° NW 20:13:47 10° NNE
Thor Agena Rocket 3.5 20:03:53 10° NNE 20:08:58 69° ESE 20:12:41 19° S
NOSS 3-2 (A) 3.5 20:03:07 10° SW 20:09:13 82° SSE 20:16:24 10° ENE
Cosmos 1867 3.7 20:04:51 10° WSW 20:10:20 78° NNW 20:15:51 10° ENE
COSMOS 2428 2.8 20:06:28 10° NW 20:12:10 65° WSW 20:16:13 20° SSE
Cosmos 1733 Rocket 3.0 20:09:08 20° S 20:12:13 86° ESE 20:16:41 10° NNE
Terra 4.0 20:10:22 10° SW 20:13:36 18° W 20:16:50 10° NW
Cosmos 2061 Rocket 4.1 20:09:55 13° SSW 20:15:35 74° WNW 20:21:50 10° NNE
NOSS 3-2 (C) 3.5 20:10:23 10° SW 20:16:25 72° SE 20:23:30 10° ENE
Meteor 1-11 Rocket 3.9 20:16:06 14° SSW 20:21:03 78° WNW 20:26:55 10° NNE
Cosmos 1980 3.7 20:15:58 10° NW 20:21:42 85° NE 20:26:37 14° SE
Cosmos 2297 Rocket 4.3 20:23:41 10° ESE 20:25:58 13° E 20:28:16 10° ENE
Cosmos 2237 Rocket 2.2 20:25:04 10° NW 20:30:47 89° NE 20:35:33 15° SE
Cosmos 2333 Rocket 2.8 20:25:31 10° NW 20:31:00 45° WSW 20:34:35 20° S
Cosmos 1607 4.1 20:24:35 10° WNW 20:31:03 86° NNE 20:37:33 10° ESE
Cosmos 1666 3.4 20:28:29 15° SW 20:31:21 48° WNW 20:35:02 10° N
Cosmos 1782 Rocket 4.3 20:31:09 21° SSE 20:33:34 41° E 20:37:40 10° NNE
Cosmos 1833 Rocket 4.4 20:28:51 10° W 20:34:01 35° NNW 20:39:12 10° NE
Cosmos 1743 2.7 20:35:16 25° S 20:37:27 80° ESE 20:41:24 10° NNE
Cosmos 1271 Rocket 3.4 20:33:55 10° NNW 20:37:29 41° W 20:39:29 22° SSW
Cosmos 2233 Rocket 4.1 20:33:38 17° SSW 20:38:38 85° WNW 20:45:01 10° NNE
Cosmos 2084 Rocket 3.4 20:36:37 10° SW 20:40:50 63° SSE 20:45:10 10° ENE
Cosmos 1908 Rocket 3.6 20:38:45 23° S 20:41:22 73° ESE 20:45:45 10° NNE
SL-4 R/B 3.9 20:39:00 10° WSW 20:39:35 13° SW 20:39:35 13° SW
Cosmos 1464 Rocket 4.4 20:37:41 19° SSE 20:42:02 53° E 20:48:01 10° NNE
MOS 1-B Rocket 4.2 20:38:23 10° NNE 20:44:10 62° WNW 20:49:29 11° SW
ERBS 3.2 20:41:28 10° W 20:44:20 27° SSW 20:44:21 27° SSW
COSMOS 2487 2.3 20:42:46 26° SSW 20:44:35 78° ESE 20:48:03 10° NNE
Cosmos 2344 4.2 20:39:07 10° WNW 20:47:42 72° SW 20:59:28 10° SE
Okean 2 3.7 20:45:16 10° NNW 20:49:20 58° W 20:51:36 24° SSW
Nadezhda 4 Rocket 4.1 20:45:12 10° NNW 20:51:34 80° ENE 20:56:19 18° SSE
Cosmos 1536 3.9 20:50:01 14° SW 20:53:12 39° WNW 20:56:58 10° N
ATLAS 3B R/B 2.7 20:48:21 11° SW 20:54:31 61° SE 21:01:07 10° ENE
NOSS 5 (C) 4.4 20:55:06 23° SSW 20:56:55 52° SE 20:59:53 10° ENE
Helios 1A 3.2 20:55:08 24° S 20:57:31 60° WSW 21:01:44 10° NNW
Cosmos 44 Rocket 4.3 20:53:41 10° WNW 20:58:02 31° SW 21:00:16 22° SSW
Cosmos 1503 Rocket 4.4 20:54:47 22° S 20:58:04 51° ESE 21:03:16 10° NE
SL-24 DEB 4.3 20:54:40 10° N 20:59:29 79° W 21:02:36 22° SSW
Cosmos 1975 Rocket 3.3 20:55:02 10° NNW 20:59:30 63° W 21:02:08 24° S
Cosmos 1486 Rocket 4.0 21:00:30 19° SSW 21:04:16 79° ESE 21:09:30 10° NE
USA 238 DEB 3.9 21:00:02 10° WSW 21:06:52 79° NNW 21:14:04 10° ENE
USA 238 3.9 21:00:08 10° WSW 21:06:58 79° NNW 21:14:11 10° ENE
Cosmos 1092 Rocket 4.2 21:01:32 10° NNW 21:07:49 71° ENE 21:12:55 16° SSE
Cosmos 2034 Rocket 4.3 21:07:19 19° S 21:11:48 61° E 21:18:03 10° NNE
Cosmos 1300 Rocket 4.4 21:09:57 19° SSE 21:12:32 39° E 21:16:35 10° NNE
Cosmos 1707 2.7 21:09:15 10° NNW 21:13:12 83° WSW 21:15:25 25° S
Cosmos 1072 Rocket 4.5 21:09:47 20° S 21:14:09 83° E 21:20:19 10° NNE
Okean 2 Rocket 3.8 21:11:34 20° SSE 21:14:19 44° E 21:18:37 10° NNE
Cosmos 1674 3.6 21:11:17 10° N 21:14:52 42° ENE 21:17:43 15° SE
Cosmos 2227 Rocket 3.8 21:11:44 13° SE 21:15:06 22° ESE 21:19:22 10° NE
Cosmos 1842 4.2 21:15:04 10° NNW 21:18:42 35° W 21:20:42 21° SW
Lacrosse 4 Rocket 1.3 21:17:36 20° SW 21:20:28 72° SE 21:24:38 10° NE
Cosmos 2219 Rocket 3.5 21:16:20 10° NW 21:20:58 26° WSW 21:23:54 17° SSW
Cosmos 1975 2.9 21:19:12 24° SSW 21:21:34 78° WNW 21:25:39 10° NNE
CZ-2D R/B 4.0 21:21:21 10° NE 21:25:36 22° E 21:29:49 10° SE
SL-16 R/B 3.0 21:19:31 10° SE 21:25:40 61° ENE 21:31:50 10° NNW
Cosmos 1833 4.3 21:21:18 12° SW 21:26:39 78° NW 21:32:23 10° NE
Sich 1 Rocket 3.6 21:24:48 23° S 21:27:27 76° ESE 21:31:53 10° NNE
Cosmos 773 Rocket 4.4 21:22:52 10° NW 21:27:47 45° WSW 21:30:47 21° S
CENTAUR R/B 2.9 21:21:22 10° WSW 21:28:02 82° NNW 21:35:59 10° ENE
Cosmos 1538 Rocket 4.1 21:23:47 10° NW 21:28:54 60° WSW 21:32:26 20° S
DNEPR-1 R/B 4.5 21:25:19 10° WNW 21:31:24 49° SW 21:35:12 17° SSE
Cosmos 1544 3.6 21:29:27 21° SW 21:31:38 51° WNW 21:35:15 10° N
Cosmos 2082 Rocket 4.1 21:26:59 10° WNW 21:32:03 31° NNW 21:37:05 10° NE
Cosmos 1025 Rocket 3.0 21:30:33 10° NNW 21:34:49 67° W 21:37:24 23° S
CZ-4 R/B 4.1 21:31:49 10° NNE 21:36:48 66° ESE 21:40:11 21° S
SJ 16-02 3.6 21:34:12 10° SE 21:36:48 16° E 21:39:26 10° ENE
PSLV R/B 3.8 21:34:01 10° NNE 21:38:40 74° ESE 21:41:46 21° S
CZ-4C R/B 4.2 21:35:38 10° SE 21:38:54 41° ENE 21:42:23 10° N
Landsat 4 3.7 21:37:18 10° NNE 21:41:08 79° ESE 21:43:17 24° SSW
USA 267 3.2 21:35:24 10° ESE 21:41:57 68° S 21:48:28 10° W
SL-16 R/B 2.2 21:36:35 10° NW 21:42:18 77° SW 21:47:59 10° SSE
Cosmos 968 Rocket 3.6 21:38:43 16° SW 21:42:53 72° NW 21:48:04 10° NNE
Cosmos 1437 3.2 21:41:40 10° NNW 21:44:32 40° W 21:45:34 29° SSW
Cosmos 2151 Rocket 3.9 21:43:19 21° S 21:46:10 59° E 21:50:31 10° NNE
MOZ.5/SAFIR/RUBIN 5/SL-8 3.9 21:42:15 15° SSE 21:46:16 79° ENE 21:51:02 10° NNW
Meteor 1-12 Rocket 4.5 21:45:54 19° S 21:50:18 74° ESE 21:56:21 10° NNE
DELTA 2 DEB (DPAF) 4.2 21:47:24 15° SSE 21:51:09 78° ENE 21:55:37 10° NNW
Helios 1B rocket 2.5 21:48:06 10° NNE 21:52:13 67° ESE 21:54:47 22° S
Cosmos 2112 Rocket 4.0 21:48:41 10° NNW 21:53:59 85° NE 21:59:13 10° SSE
Cosmos 1867 4.4 21:49:06 10° W 21:54:28 54° N 21:59:51 10° ENE
COSMOS 2428 4.4 21:51:41 10° WNW 21:55:29 18° W 21:58:12 13° SW
Cosmos 1626 2.9 21:53:33 10° N 21:57:12 49° ENE 22:00:37 11° SE
Cosmos 1892 Rocket 4.4 21:53:20 10° N 21:57:44 50° ENE 22:02:04 10° SE
Meteor 1-24 Rocket 3.9 21:53:14 10° NNW 21:58:45 67° ENE 22:04:06 10° SSE
NOSS 3-2 (A) 4.1 21:54:00 10° W 22:00:26 70° N 22:08:01 10° E
Cosmos 1354 Rocket 4.1 21:57:35 17° SW 22:01:47 80° NW 22:07:09 10° NNE
Cosmos 1536 Rocket 3.9 21:57:52 10° NNW 22:02:05 50° W 22:04:43 21° SSW
Timation 2 Rocket 4.1 21:57:48 19° SSW 22:02:16 61° ESE 22:08:11 10° NE
IRAS Rocket 4.3 21:58:56 11° SSE 22:04:15 87° WSW 22:09:56 10° NNW
Cosmos 2026 Rocket 4.0 21:59:53 10° NNW 22:05:56 72° W 22:10:54 16° S
NOSS 3-2 (C) 4.0 22:01:08 10° W 22:07:32 72° N 22:15:02 10° ENE
Cosmos 2297 Rocket 2.7 22:04:45 18° S 22:08:44 48° ESE 22:14:09 10° NE
KORONAS-FOTON 3.8 22:05:29 10° NNW 22:09:15 68° W 22:11:43 20° S
Cosmos 1680 Rocket 3.5 22:05:17 10° NW 22:10:32 72° WSW 22:15:42 10° SSE
Resurs 1-4 Rocket 3.0 22:08:45 10° NNE 22:13:47 41° E 22:18:22 12° SSE
Cosmos 2333 Rocket 4.3 22:11:50 10° WNW 22:13:54 12° W 22:15:58 10° WSW
Cosmos 2237 Rocket 3.3 22:09:35 10° NW 22:14:18 27° WSW 22:17:20 17° SSW
Cosmos 2219 3.5 22:11:09 18° SSW 22:15:13 57° ESE 22:20:44 10° NE
Cosmos 1607 4.4 22:12:01 10° WNW 22:18:00 42° SW 22:24:00 10° SSE
Meteor 2-5 Rocket 3.7 22:12:35 10° NNW 22:18:18 80° WSW 22:23:23 13° S
Cosmos 158 Rocket 4.1 22:14:09 10° NW 22:19:27 64° WSW 22:24:43 10° SSE
Cosmos 2084 Rocket 3.8 22:16:06 10° W 22:20:25 68° N 22:24:50 10° ENE
USA 102 3.7 21:31:03 10° ESE 22:21:23 83° ENE 22:23:46 10° NNW
UNK 3.7 22:18:08 14° SSE 22:22:14 78° WSW 22:26:58 10° NNW
Cosmos 1603 3.9 22:16:32 10° NW 22:22:21 80° NE 22:28:06 10° SE
Cosmos 1634 Rocket 4.0 22:18:39 16° S 22:23:46 83° E 22:30:01 10° NNE
Cosmos 1777 Rocket 4.1 22:22:25 18° SSW 22:26:27 79° ESE 22:31:47 10° NE
Cosmos 724 4.3 22:21:10 10° NW 22:27:04 66° SW 22:33:05 10° SE
Meteor 1-29 2.9 22:24:28 10° NNE 22:27:57 84° WNW 22:30:13 20° SSW
Spot 1 4.4 22:32:21 18° SSW 22:35:06 43° W 22:39:02 10° NNW
Cosmos 1766 3.4 22:38:17 16° S 22:41:19 69° E 22:45:12 10° NNE
COBE Rocket 3.8 22:39:40 10° SSE 22:44:19 86° ENE 22:49:01 10° NNW
ATLAS 3B R/B 2.9 22:38:34 10° WSW 22:45:12 75° NNW 22:52:02 10° ENE
Cosmos 1943 3.2 22:39:47 10° NW 22:45:27 90° SW 22:51:06 10° SE
Cosmos 1674 3.8 22:47:02 10° NNW 22:50:17 28° W 22:52:31 16° SW
Cosmos 1300 Rocket 4.4 22:47:00 14° SW 22:50:21 39° WNW 22:54:27 10° N
Okean 2 Rocket 4.1 22:48:56 13° SW 22:52:30 38° WNW 22:56:46 10° N
ADEOS II 3.2 22:48:39 10° NNE 22:53:36 38° E 22:58:30 10° SSE
Cosmos 1602 Rocket 4.4 22:49:58 10° N 22:54:15 50° ENE 22:58:29 10° SE
Cosmos 2098 Rocket 3.5 22:49:50 10° NNW 22:54:31 85° WSW 23:00:28 10° S
Cosmos 1470 3.9 22:52:51 10° SSE 22:56:34 39° E 23:00:19 10° NNE
Cosmos 2266 Rocket 4.1 22:50:34 10° NNW 22:57:00 84° W 23:03:18 10° S
USA 238 DEB 4.1 22:51:25 10° WNW 22:58:22 72° N 23:05:40 10° E
Cosmos 2227 Rocket 2.3 22:53:33 14° SSW 22:58:24 77° SE 23:04:06 10° NE
USA 238 4.1 22:51:32 10° WNW 22:58:28 72° N 23:05:47 10° E
GEOS 3 Rocket 4.3 22:54:06 10° ENE 22:59:17 44° SE 23:03:52 13° SSW
Lacrosse 4 Rocket 2.6 22:55:25 10° W 22:59:26 40° NNW 23:03:22 10° NE
Cosmos 1461 4.3 22:56:59 12° S 23:00:26 31° SE 23:04:30 10° ENE
Okean 1 Rocket 3.2 22:58:10 15° SSW 23:01:44 67° WNW 23:06:07 10° N
Okean 1-7 Rocket 3.6 22:57:40 10° NNW 23:02:04 69° W 23:06:29 10° S
Cosmos 1726 4.1 23:02:08 10° SE 23:05:10 25° E 23:08:12 10° NE
CZ-2D R/B 2.3 23:00:56 10° NNE 23:06:29 84° ESE 23:11:44 11° SSW
ERS-2 4.4 23:03:53 10° ESE 23:07:00 27° ENE 23:10:09 10° N
Cosmos 1805 3.4 23:05:28 15° SSW 23:08:38 61° WNW 23:12:31 10° N
SL-16 R/B 3.1 23:03:54 11° SSW 23:09:35 43° W 23:15:32 10° NNW
Cosmos 1733 3.2 23:06:22 14° SSW 23:09:38 78° WNW 23:13:31 10° NNE
CZ-4C R/B 4.1 23:11:21 14° SSW 23:13:46 29° W 23:17:00 10° NNW
SL-14 R/B 3.9 23:10:11 10° NNW 23:13:53 39° W 23:17:08 12° SSW
SJ 16-02 1.5 23:10:44 13° SSW 23:14:41 73° ESE 23:19:06 10° NNE
SL-08 R/B 3.5 23:09:52 10° SSE 23:14:50 86° ENE 23:19:49 10° NNW
NPP 3.7 23:09:40 10° NNE 23:15:07 84° ESE 23:20:29 10° SSW
Cosmos 1655 Rocket 4.2 23:11:11 10° NNW 23:17:17 55° W 23:23:20 10° SSW
Cosmos 2082 Rocket 4.3 23:12:39 10° NW 23:17:40 31° NNE 23:22:38 10° ENE
Cosmos 1048 Rocket 4.1 23:13:33 10° NNW 23:18:44 81° NE 23:23:54 10° SE
CENTAUR R/B 3.3 23:12:15 10° W 23:19:20 72° N 23:27:39 10° E
NOSS 8 (A) 4.1 23:16:49 11° WSW 23:19:39 89° NW 23:22:55 10° ENE
OPS 6432 4.2 23:16:59 10° WNW 23:19:54 78° NNE 23:23:04 10° ESE
Cosmos 2082 3.8 23:16:28 12° SSW 23:21:43 71° SE 23:27:21 10° NE
Uosat 12 SS-18 rocket 4.1 23:17:56 11° SW 23:22:23 75° SE 23:26:44 10° ENE
Meteor 1-21 Rocket 4.2 23:19:12 10° NNW 23:24:49 89° W 23:30:22 10° SSE
USA 267 3.4 23:19:15 10° SE 23:25:35 50° SSW 23:31:56 10° W
Cosmos 1626 Rocket 3.5 23:21:15 10° NNW 23:25:36 80° W 23:29:55 10° S
SL-16 R/B 3.5 23:21:22 10° NW 23:25:40 22° WSW 23:29:54 10° SSW
Helios 1B rocket 4.0 23:23:47 10° N 23:27:12 26° NW 23:30:36 10° WSW
NOSS 3-1 (C) 4.3 23:22:02 10° SSW 23:27:20 40° SE 23:33:30 10° ENE
Meteor 2-21 4.4 23:24:17 10° NNW 23:30:22 82° WSW 23:36:27 10° S
Cosmos 1626 3.4 23:29:11 10° NW 23:32:15 24° W 23:35:08 11° SW
Cosmos 1455 Rocket 3.1 23:28:11 10° SSW 23:32:39 89° E 23:37:09 10° NNE
Cosmos 1867 4.1 23:33:12 10° WNW 23:38:42 68° NNE 23:44:09 10° ESE
Cosmos 1937 Rocket 3.9 23:37:40 10° SSW 23:42:55 61° ESE 23:48:11 10° NE
CBERS-1 4.1 23:38:27 10° NNE 23:43:38 83° ESE 23:48:45 10° SSW
Cosmos 2263 Rocket 3.3 23:39:33 10° S 23:44:39 38° ESE 23:49:47 10° NE
CZ-4B R/B 4.2 23:42:40 10° ESE 23:45:11 22° ENE 23:47:40 10° N
Cosmos 1758 Rocket 3.8 23:41:33 10° NNW 23:45:53 74° ENE 23:50:13 10° SSE
ARIANE 5 R/B 3.2 23:43:59 10° NNE 23:49:08 55° ESE 23:54:16 10° S
Timation 2 Rocket 4.5 23:43:57 10° WSW 23:49:55 54° NNW 23:55:49 10° NE
NOSS 3-2 (A) 4.0 23:45:03 10° WNW 23:51:53 83° NNE 23:59:52 10° ESE
Cosmos 990 Rocket 4.0 23:47:03 10° SSW 23:52:16 88° ESE 23:57:28 10° NNE
Cosmos 1758 3.3 23:48:14 10° SSW 23:52:16 84° WNW 23:56:19 10° NNE
Cosmos 2297 Rocket 2.6 23:47:10 10° WSW 23:52:46 59° NW 23:58:24 10° NE
Cosmos 1898 Rocket 3.6 23:48:10 10° SSW 23:53:25 85° ESE 23:58:39 10° NE
Resurs 1-4 Rocket 2.5 23:48:39 10° NNE 23:53:48 52° WNW 23:58:53 10° SW
